Location: Ulm
(48.4292°N, 9.9866°E)
Time: 19:20:44
(UTC+01:00)

ISS - Visible Passes

Search period start: 14 December 2025 00:00
Search period end: 24 December 2025 00:00
Orbit: 416 x 420 km, 51.6° (Epoch: 13 December)

Date Brightness Start Highest point End Pass type
(mag) Time Alt. Az. Time Alt. Az. Time Alt. Az.
14 Dec -1.3 06:26:18 10° SSW 06:29:03 23° SE 06:31:49 10° E visible
15 Dec -0.8 05:39:08 10° S 05:41:14 16° SE 05:43:20 10° E visible
15 Dec -3.5 07:14:11 10° WSW 07:17:33 74° SSE 07:20:56 10° ENE visible
16 Dec -2.9 06:26:42 13° SW 06:29:34 51° SSE 06:32:52 10° ENE visible
17 Dec -2.3 05:41:17 33° SSE 05:41:37 34° SE 05:44:42 10° E visible
17 Dec -3.7 07:14:54 10° W 07:18:15 65° NNW 07:21:38 10° ENE visible
18 Dec -0.5 04:55:38 14° E 04:55:38 14° E 04:56:23 10° E visible
18 Dec -3.9 06:28:35 29° WSW 06:30:09 84° NNW 06:33:33 10° ENE visible
19 Dec -3.0 05:42:44 52° E 05:42:44 52° E 05:45:26 10° ENE visible
19 Dec -3.4 07:15:40 10° W 07:18:59 48° N 07:22:16 10° ENE visible
20 Dec -0.5 04:56:46 14° ENE 04:56:46 14° ENE 04:57:16 10° ENE visible
20 Dec -3.6 06:29:41 36° WNW 06:30:46 55° NNW 06:34:06 10° ENE visible
21 Dec -2.6 05:43:36 40° NE 05:43:36 40° NE 05:45:57 10° ENE visible
21 Dec -3.3 07:16:32 11° WNW 07:19:38 47° N 07:22:55 10° E visible
22 Dec -0.4 04:57:26 12° ENE 04:57:26 12° ENE 04:57:46 10° ENE visible
22 Dec -3.3 06:30:21 34° NW 06:31:22 46° N 06:34:39 10° ENE visible
23 Dec -2.4 05:44:07 35° NE 05:44:07 35° NE 05:46:24 10° ENE visible
23 Dec -3.5 07:17:02 11° WNW 07:20:10 59° NNE 07:23:31 10° E visible
